Theta_e
320 320 319 319 320 320 320 318 317 316 316 316 316 316 317 317 317 324 329 332 331 339 347 348 349 349 350 349 351 353 353 355 340 343 343 342 342 344 344 344 343 342 344 346 347
321 320 320 319 319 320 320 319 318 317 316 316 317 316 317 317 318 328 332 332 330 339 349 350 349 350 350 349 350 352 352 353 337 339 342 342 343 344 343 342 342 342 344 346 347
320 321 320 319 318 319 320 319 318 317 317 316 316 317 318 318 325 331 337 337 338 348 348 351 346 348 349 343 348 350 348 343 337 341 343 343 344 345 342 342 342 343 343 348 348
319 321 321 320 318 319 319 319 318 317 317 316 316 317 318 319 330 333 333 341 343 344 345 343 347 347 346 347 348 351 348 346 340 343 343 342 344 344 343 344 342 341 343 344 347
318 319 321 320 319 319 320 319 318 317 317 316 316 316 317 321 327 333 333 345 346 351 352 346 344 344 347 347 346 347 344 339 343 343 343 343 344 344 344 342 341 342 343 343 345
315 318 320 321 320 319 320 319 318 317 316 316 316 317 317 320 333 333 339 346 346 347 348 348 347 346 346 346 345 346 345 341 339 341 342 339 341 344 343 342 342 342 343 342 342
313 315 319 321 320 320 319 319 318 316 315 315 316 317 317 322 332 333 340 345 346 346 345 346 349 346 345 346 345 345 342 340 337 338 337 340 342 345 342 342 342 342 342 342 343
312 313 317 320 320 320 318 318 318 315 314 315 315 316 319 322 329 332 333 342 347 346 346 347 347 350 345 346 345 346 342 341 342 342 338 339 342 344 342 342 342 342 342 343 344
311 312 315 319 320 319 317 316 316 315 314 314 315 317 320 322 325 327 330 334 344 344 343 344 342 346 347 341 343 344 348 345 345 344 339 338 341 345 343 342 342 343 343 343 344
311 312 313 318 320 319 320 316 316 315 314 314 315 324 323 325 329 330 331 332 334 337 337 337 344 341 340 339 344 346 348 352 350 346 343 341 340 345 343 343 343 343 343 344 344
311 312 312 316 321 320 321 318 319 320 317 317 318 321 323 324 326 330 330 330 332 334 335 337 338 341 341 341 343 346 349 347 348 346 348 344 344 344 342 342 342 342 343 343 343
311 311 312 314 320 320 321 323 329 327 326 328 328 326 323 321 323 329 328 329 332 334 336 336 339 338 339 341 342 345 348 348 348 346 347 348 349 342 340 341 341 342 343 343 344
311 312 312 313 320 321 322 323 324 325 324 327 328 329 328 323 322 328 329 329 335 335 335 337 338 338 338 342 343 342 345 348 349 347 345 345 345 344 342 343 341 341 343 344 344
311 312 312 313 320 322 323 325 327 326 321 325 326 327 328 326 325 328 330 329 331 332 332 333 333 327 327 341 341 343 341 344 347 349 348 344 349 344 342 345 344 341 342 343 344
311 312 312 312 320 323 327 327 326 326 331 329 325 327 328 324 325 325 327 329 328 330 327 328 327 325 325 327 333 330 335 343 345 346 342 346 343 341 344 346 346 342 342 342 343
311 312 312 313 318 324 327 326 327 324 331 330 324 322 321 322 323 326 326 326 328 326 323 323 324 325 324 326 326 326 328 324 326 327 337 338 343 340 345 346 345 343 341 341 342
312 312 313 313 319 324 327 327 324 327 327 330 324 320 320 321 322 324 325 325 324 324 322 322 324 322 325 325 323 323 322 325 329 330 331 333 342 340 340 341 344 345 343 341 341
312 313 313 314 319 326 326 322 330 328 329 330 322 319 320 321 322 323 323 323 322 320 319 323 324 324 324 324 324 324 322 323 329 328 327 327 336 337 337 341 343 345 344 344 341
312 318 316 314 318 323 326 323 324 327 330 330 323 322 323 323 324 324 322 321 322 319 322 320 322 322 323 322 323 323 323 321 321 320 324 327 331 334 338 340 339 341 341 342 342
316 326 322 315 320 323 322 323 325 326 329 329 326 323 323 324 323 322 322 323 324 320 321 321 322 323 324 324 322 322 319 320 316 325 326 325 332 335 341 339 338 339 339 342 343
320 329 325 313 320 326 322 321 325 329 330 328 329 330 329 331 324 323 323 323 324 323 320 319 320 323 323 322 321 322 321 316 315 318 321 326 330 329 330 337 337 342 350 348 342
319 324 323 319 321 317 320 323 327 328 327 326 326 328 328 329 331 331 326 328 330 321 321 319 317 323 324 325 324 323 322 316 318 321 318 322 327 331 334 338 348 348 348 350 347
318 326 324 319 318 317 318 322 325 325 325 327 327 327 328 329 331 330 331 330 331 328 324 322 320 322 323 322 326 328 329 321 315 316 322 327 332 336 346 347 347 347 345 351 355
324 325 324 318 320 318 322 322 324 327 325 326 325 325 326 326 326 331 329 332 330 331 327 326 320 321 322 325 326 331 331 327 323 327 324 324 335 340 348 347 346 343 341 347 350
323 321 321 320 321 321 321 323 325 327 325 325 325 324 325 326 328 326 325 325 328 325 328 322 326 326 327 329 330 331 329 328 329 328 330 327 337 338 341 344 344 341 338 341 347
321 320 322 321 322 318 318 325 326 324 321 326 324 322 322 323 325 326 323 323 326 321 323 323 330 331 332 326 331 327 326 334 334 336 330 330 337 335 338 340 338 336 335 334 339
319 321 322 321 320 319 320 320 322 322 322 325 323 321 320 321 322 323 322 322 321 321 320 325 325 328 331 325 330 330 328 334 334 334 335 334 336 337 337 336 336 335 334 333 335
Wind_Speed
8 8 7 6 5 4 3 4 3 3 3 3 3 3 3 4 5 3 5 8 9 12 12 15 13 10 12 4 3 2 2 2 6 6 4 13 6 18 9 20 5 8 14 27 27
8 8 7 6 5 4 4 4 3 4 3 4 4 4 4 5 5 5 8 8 11 12 18 17 12 13 7 4 6 5 3 5 8 10 6 15 15 14 8 17 3 10 21 26 29
8 7 7 6 4 4 3 4 4 4 3 3 4 3 4 6 2 2 8 6 10 12 12 11 13 17 6 6 7 6 5 1 6 20 22 20 14 13 21 7 15 32 28 31 31
8 7 6 6 5 3 3 4 3 3 4 4 4 3 3 4 3 1 8 7 10 17 14 16 19 6 7 5 6 3 11 11 7 20 20 14 23 11 25 12 25 34 35 32 32
8 7 6 5 4 4 3 3 3 3 3 3 4 3 3 4 2 3 9 9 12 14 11 14 11 4 4 4 3 2 6 2 20 27 25 23 18 12 21 9 27 31 34 31 31
9 7 6 5 4 3 3 3 3 3 2 3 4 4 3 3 1 3 8 9 7 9 7 2 2 6 6 5 2 2 8 3 11 18 19 11 7 16 13 25 29 33 35 31 30
9 8 7 5 4 3 3 3 3 3 2 3 3 5 7 6 3 2 4 5 4 6 5 4 4 6 12 7 12 8 4 5 10 8 5 15 3 4 26 32 32 32 35 29 32
9 8 7 6 4 3 3 3 3 3 3 3 4 5 6 4 9 6 5 8 8 10 11 10 6 6 4 11 8 5 5 3 2 0 10 6 5 5 30 32 28 30 33 32 30
10 8 6 6 5 3 2 3 3 4 3 4 4 4 5 10 15 13 12 9 9 11 11 11 11 2 2 3 5 7 3 5 7 8 4 3 3 13 28 28 26 28 32 34 32
12 9 7 5 4 3 2 2 2 3 3 4 6 3 10 9 10 15 13 13 8 9 10 8 5 2 3 3 2 3 5 3 4 5 7 0 4 15 27 27 27 29 33 34 33
12 10 7 5 4 3 3 3 2 2 7 8 3 9 3 4 5 12 16 16 17 8 4 4 3 8 11 9 5 6 6 7 4 6 3 5 4 18 25 20 21 27 33 36 34
13 10 7 6 4 4 6 4 3 4 7 12 16 22 23 20 6 13 14 14 8 6 1 4 6 12 9 6 5 7 5 8 9 8 4 4 8 5 17 23 29 31 33 35 33
15 11 7 6 5 6 10 5 4 9 2 8 13 15 14 6 8 12 17 19 4 4 4 5 11 8 6 7 8 6 8 10 8 5 2 4 5 5 7 12 22 26 33 35 33
17 12 7 6 5 8 4 4 5 1 4 6 5 8 10 6 4 16 18 11 3 8 5 6 5 5 10 5 7 5 12 11 17 5 4 3 4 6 9 10 9 26 34 36 36
17 13 8 7 4 9 8 2 4 4 2 3 4 1 11 10 1 10 17 15 6 6 3 8 6 7 6 4 9 10 4 17 13 8 3 3 1 6 3 12 13 18 36 39 38
18 14 10 9 12 9 4 1 6 5 4 2 6 6 5 5 3 4 9 12 12 2 2 7 4 4 6 1 3 3 4 6 5 5 1 10 8 5 6 17 15 14 28 37 40
18 14 10 10 8 11 3 4 5 3 4 3 5 5 4 4 3 3 2 5 6 2 4 8 6 5 5 3 2 5 7 4 4 3 5 2 3 9 7 6 12 15 26 36 36
17 12 9 10 12 11 7 5 3 4 6 4 4 4 7 5 5 3 4 4 1 5 3 2 8 5 4 7 6 2 7 5 3 2 5 3 6 6 7 13 9 10 11 25 27
14 11 7 9 18 12 9 3 6 6 4 5 3 5 2 1 1 2 5 6 8 8 8 6 6 6 5 5 9 2 2 4 6 2 3 3 5 6 4 2 7 6 9 12 16
12 6 3 9 19 13 4 5 5 5 5 3 3 3 6 5 7 6 5 5 7 11 7 5 2 3 5 4 6 4 5 2 4 0 3 5 4 4 4 8 5 3 14 21 20
7 2 3 14 17 7 4 7 5 9 4 5 3 4 5 4 7 5 6 6 7 4 5 5 3 7 4 4 3 3 3 5 4 4 5 1 6 3 10 1 4 8 8 3 4
3 2 9 23 4 2 3 5 4 2 2 6 4 3 4 2 3 3 4 5 8 9 11 8 5 5 8 1 2 4 4 5 5 3 1 3 5 9 5 10 16 8 12 17 20
7 2 15 17 3 2 5 4 5 3 4 4 3 3 3 3 2 4 4 7 15 3 7 7 1 2 8 7 4 6 1 5 4 3 4 4 4 7 13 16 10 13 19 30 31
4 2 4 8 1 4 1 5 5 8 7 7 1 1 3 4 5 2 6 4 11 9 7 5 4 6 7 5 3 3 3 4 6 3 2 5 5 5 6 10 10 20 28 32 30
6 2 2 2 2 3 2 3 5 4 5 12 5 4 3 4 2 5 3 6 6 15 6 4 4 3 3 1 4 3 5 3 3 3 3 5 7 4 4 5 6 16 26 29 27
5 5 5 3 7 5 2 2 2 1 5 4 6 4 5 6 3 3 2 4 1 7 6 6 2 2 2 5 6 7 7 6 5 4 1 5 5 1 21 19 16 18 23 26 25
7 4 3 5 6 2 3 5 5 3 10 9 9 5 8 3 5 4 6 5 5 1 3 3 4 3 3 3 4 3 3 6 4 9 3 3 2 4 14 16 16 18 20 22 21
Wind_Direction
13 12 7 357 350 332 299 275 265 262 264 270 275 282 284 294 297 274 184 156 178 162 154 167 181 204 209 235 181 90 33 277 190 165 214 169 150 165 154 146 165 151 170 166 173
9 5 3 357 345 331 301 281 267 258 258 266 278 298 304 305 296 247 177 162 163 186 176 180 175 201 194 228 174 170 189 234 195 179 178 168 171 151 131 161 139 136 153 170 179
2 359 357 354 343 329 306 285 274 261 253 262 278 294 305 318 346 166 198 158 153 175 194 196 210 190 236 196 202 204 228 258 225 178 160 163 176 157 148 193 176 154 158 169 179
356 352 351 347 336 328 310 294 276 264 253 257 270 287 310 307 158 100 176 156 161 168 156 169 183 231 223 182 195 233 270 253 166 160 150 178 166 146 169 199 186 163 162 173 182
347 345 342 339 331 322 308 284 278 264 254 255 265 277 307 283 256 93 161 167 178 189 197 181 193 240 359 303 146 177 320 45 165 166 169 156 173 167 192 187 171 166 170 174 180
343 339 335 332 325 315 299 273 257 261 251 255 267 279 285 282 347 84 170 181 188 196 211 270 13 346 286 259 130 265 305 100 201 166 165 151 143 148 190 170 169 174 179 183 186
344 336 329 328 320 310 290 265 259 242 227 231 253 275 271 232 206 159 183 215 213 206 251 296 295 358 328 326 3 334 58 36 150 175 178 136 105 198 161 170 169 180 185 191 196
343 335 325 320 316 303 272 232 247 244 227 226 236 265 253 222 199 197 195 209 221 245 259 300 305 260 278 314 350 33 46 62 15 44 163 131 222 150 166 167 175 185 192 197 204
342 334 323 315 313 297 242 222 230 236 230 226 235 242 255 217 227 229 222 211 224 246 269 263 304 252 343 38 355 9 39 15 323 338 147 117 145 173 175 177 182 192 199 203 211
341 333 321 309 303 291 232 193 215 249 245 247 245 284 242 228 227 223 214 218 229 265 289 250 184 81 45 108 253 72 60 349 339 332 347 329 189 173 184 186 190 197 205 209 215
341 332 319 302 281 242 198 183 188 246 229 229 248 241 299 339 289 219 220 217 234 265 210 224 141 219 220 215 132 139 150 185 273 294 67 280 213 187 189 196 199 205 209 213 217
340 331 314 295 269 227 204 204 122 49 303 269 261 260 261 272 304 226 209 187 180 224 141 13 242 238 249 198 189 174 171 123 281 240 144 219 275 205 193 203 202 204 211 218 222
336 328 310 287 258 220 213 192 330 316 281 274 239 249 256 218 221 218 196 200 167 215 186 194 252 339 238 168 179 218 191 150 252 85 24 139 269 229 214 208 218 221 217 218 223
332 324 303 282 245 208 207 152 331 355 56 274 219 239 219 221 274 218 208 194 223 216 206 229 282 319 315 167 145 215 218 163 205 131 226 187 253 219 214 211 213 216 224 224 224
328 317 292 236 227 180 151 298 335 134 352 147 194 274 200 175 216 206 213 205 207 214 111 243 309 320 317 269 161 225 131 186 196 196 96 248 26 264 169 218 226 219 219 225 224
323 309 285 251 226 181 195 53 130 43 262 310 155 174 121 196 237 87 190 212 230 203 231 256 261 226 223 274 221 327 84 65 51 95 251 232 175 268 201 215 215 223 221 220 223
321 305 277 245 207 200 174 143 49 145 318 224 196 154 147 177 255 182 183 189 185 90 332 337 285 280 204 281 36 71 53 351 3 25 223 76 127 250 247 246 197 198 216 223 222
320 305 270 231 194 184 149 58 172 232 246 292 124 77 167 161 248 232 157 206 161 91 105 196 321 201 170 177 178 102 138 149 232 230 256 84 225 254 277 220 223 187 231 228 219
321 308 279 206 188 182 159 100 215 210 275 326 75 91 279 245 185 159 211 219 200 167 173 165 274 303 242 178 138 200 174 182 113 19 24 262 297 303 344 131 263 255 248 231 229
330 321 263 181 177 169 91 229 230 222 325 357 150 156 175 232 160 159 196 222 214 186 158 203 321 283 319 113 52 122 162 53 10 290 314 301 303 242 249 215 264 338 288 285 262
331 351 147 151 157 158 169 231 260 270 333 6 303 187 195 191 181 196 241 252 180 162 166 135 112 288 11 43 192 3 6 39 120 126 165 255 271 242 254 213 116 32 2 347 171
1 56 152 154 95 42 179 203 300 274 313 276 212 213 197 222 217 166 208 229 326 164 164 203 151 210 219 276 315 146 142 131 119 249 185 155 279 342 95 83 86 70 61 95 108
344 47 168 185 148 261 280 277 261 273 240 251 250 221 207 92 169 47 342 347 16 115 159 177 198 63 345 4 359 66 33 118 117 77 197 147 263 30 73 74 88 103 84 91 100
1 51 139 223 188 134 309 273 256 269 253 204 212 327 115 59 25 67 352 337 357 30 42 115 116 157 188 188 178 75 354 85 110 79 259 209 163 143 121 129 126 98 94 91 92
17 41 32 267 303 320 214 259 283 286 360 33 55 5 176 111 53 7 343 334 342 6 24 81 112 97 57 39 133 74 68 82 113 152 173 239 156 171 94 70 90 106 99 96 94
27 13 360 308 303 343 117 244 256 92 12 24 94 31 88 114 139 169 22 37 43 331 31 358 138 137 100 333 140 81 67 65 15 353 19 64 62 70 98 99 89 88 92 89 88
22 360 339 343 346 49 310 290 308 136 26 116 148 94 61 143 187 242 241 252 234 311 15 54 110 85 215 323 83 18 30 105 95 22 305 137 57 114 96 93 92 94 91 89 88